KD7DVD-1 Weather Reports


Display with metric or nautical units.
time (UTC)temp
F
wind
direction
speed
MPH
gust
MPH
rain 1hr
in
rain 24hr
in
rain mn
in
humidity
%
barometer
mb
20260509103016 51 0.0 0.0 0.00 0.00 0.00 90 1022.5
20260509100016 51 0.0 0.0 0.00 0.00 0.00 88 1022.7
20260509093016 52 0.0 0.0 0.00 0.00 0.00 88 1022.8
20260509090019 52 0.0 0.0 0.00 0.00 0.00 88 1022.9
20260509083016 51 0.0 0.0 0.00 0.00 0.00 89 1023.0
20260509080015 50 0.0 0.0 0.00 0.00 0.00 89 1022.9
20260509073015 50 0.0 0.0 0.00 0.00 0.00 88 1022.9
20260509070015 50 0.0 0.0 0.00 0.00 0.00 87 1022.8
20260509063017 51 0.0 0.0 0.00 0.00 0.00 85 1022.5
20260509060017 52 0.0 0.0 0.00 0.00 0.00 84 1022.3
20260509053016 53 0.0 1.0 0.00 0.00 0.00 82 1022.3
20260509050017 53 0.0 1.0 0.00 0.00 0.00 80 1022.2
20260509043016 54 0.0 0.0 0.00 0.00 0.00 79 1022.0
20260509040016 55 0.0 1.0 0.00 0.00 0.00 76 1021.8
20260509033016 57 0.0 0.0 0.00 0.00 0.00 72 1021.4
20260509030021 59 0.0 1.0 0.00 0.00 0.00 67 1020.9
20260509023016 62 0.0 5.0 0.00 0.00 0.00 62 1020.8
20260509020016 66 0.0 3.0 0.00 0.00 0.00 55 1020.9
20260509013016 67 0.0 2.0 0.00 0.00 0.00 54 1020.9
20260509010016 66 0.0 4.0 0.00 0.00 0.00 53 1021.0
20260509003016 68 0.0 5.0 0.00 0.00 0.00 49 1021.2
20260509000016 67 0.0 4.0 0.00 0.00 0.00 51 1021.3
20260508233016 66 0.0 5.0 0.00 0.00 0.00 51 1021.0
20260508230016 65 0.0 5.0 0.00 0.00 0.00 53 1021.2
20260508223015 62 0.0 5.0 0.00 0.00 0.00 58 1021.2
20260508220015 63 0.0 3.0 0.00 0.00 0.00 57 1021.3
20260508213015 61 0.0 6.0 0.00 0.00 0.00 61 1021.3
20260508210015 61 0.0 4.0 0.00 0.00 0.00 58 1021.3
20260508203016 61 0.0 4.0 0.00 0.00 0.00 59 1021.1
20260508200017 59 0.0 4.0 0.00 0.00 0.00 62 1021.0
20260508193017 60 0.0 3.0 0.00 0.00 0.00 60 1020.9
20260508190017 58 0.0 4.0 0.00 0.00 0.00 65 1020.9
20260508183017 58 0.0 5.0 0.00 0.00 0.00 67 1020.7
20260508180017 58 0.0 4.0 0.00 0.00 0.00 66 1020.2
20260508173017 57 0.0 4.0 0.00 0.00 0.00 68 1020.0
20260508170017 56 0.0 5.0 0.00 0.00 0.00 70 1019.6
20260508163017 55 0.0 1.0 0.00 0.00 0.00 73 1019.5
20260508160017 55 0.0 2.0 0.00 0.00 0.00 74 1019.2
20260508153016 55 0.0 1.0 0.00 0.00 0.00 74 1019.5
20260508150016 52 0.0 1.0 0.00 0.00 0.00 82 1019.3
20260508143016 50 0.0 1.0 0.00 0.00 0.00 84 1018.8
20260508140016 50 0.0 1.0 0.00 0.00 0.00 86 1018.2
20260508133016 49 0.0 2.0 0.00 0.00 0.00 88 1017.6
20260508130016 49 0.0 0.0 0.00 0.00 0.00 89 1017.3
20260508123016 49 0.0 0.0 0.00 0.00 0.00 91 1017.1
20260508120016 49 0.0 0.0 0.00 0.00 0.00 91 1016.8
20260508113016 49 0.0 0.0 0.00 0.00 0.00 91 1016.5
20260508110016 49 0.0 0.0 0.00 0.00 0.00 91 1016.3